This demonstration page uses our WeatherBlox Daily Observations layout. Learn more.

Left ArrowRight Arrow

Hourly Observations for April 10, 2022

Temp ( °F °C ) Dew Point ( °F °C ) Humidity (%) Winds ( mph kmh ) Pressure ( in mb ) Visibility ( mi km ) Precip ( " mm )
12:53 am 00:53 Hazy 52 11.1 26 -3.3 37 37 SE 16 26 29.47 998 3 5 0.00 0.00
1:53 am 01:53 Hazy 50 10 27 -2.8 41 41 SE 17 28 29.42 996 5 8 0.00 0.00
2:53 am 02:53 Clear 49 9.4 28 -2.2 44 44 SE 16 26 29.37 995 9 14 0.00 0.00
3:53 am 03:53 Clear 48 8.9 29 -1.7 48 48 undefined N/A 29.38 995 9 14 0.00 0.00
4:53 am 04:53 Clear 43 6.1 27 -2.8 53 53 N 8 13 29.37 995 10 16 0.00 0.00
5:53 am 05:53 Clear 40 4.4 27 -2.8 60 60 N 16 26 29.38 995 10 16 0.00 0.00
6:53 am 06:53 Clear 38 3.3 26 -3.3 62 62 N 8 13 29.42 996 10 16 0.00 0.00
7:53 am 07:53 Sunny 40 4.4 25 -3.9 55 55 NNW 17 28 29.46 998 10 16 0.00 0.00
8:53 am 08:53 Sunny 46 7.8 26 -3.3 46 46 NNW 23 37 29.45 997 10 16 0.00 0.00
9:53 am 09:53 Sunny 51 10.6 26 -3.3 38 38 NNW 28 44 29.45 997 10 16 0.00 0.00
10:53 am 10:53 Sunny 55 12.8 31 -0.6 40 40 NNW 29 46 29.48 998 10 16 0.00 0.00
11:53 am 11:53 Sunny 59 15 32 0 36 36 NNW 23 37 29.51 999 10 16 0.00 0.00
12:53 pm 12:53 Sunny 60 15.6 35 1.7 39 39 NNW 23 37 29.51 999 10 16 0.00 0.00
1:53 pm 13:53 Sunny 61 16.1 37 2.8 41 41 NW 24 39 29.53 1000 10 16 0.00 0.00
2:53 pm 14:53 Sunny 63 17.2 37 2.8 38 38 NNW 23 37 29.54 1000 10 16 0.00 0.00
3:53 pm 15:53 Mostly Sunny 64 17.8 33 0.6 32 32 NNW 22 35 29.55 1001 10 16 0.00 0.00
4:53 pm 16:53 Mostly Sunny 62 16.7 27 -2.8 26 26 WNW 21 33 29.57 1002 10 16 0.00 0.00
5:53 pm 17:53 Mostly Cloudy 62 16.7 25 -3.9 24 24 NW 22 35 29.61 1003 10 16 0.00 0.00
6:53 pm 18:53 Cloudy 61 16.1 8 -13.3 12 12 WNW 23 37 29.65 1004 10 16 0.00 0.00
7:53 pm 19:53 Sunny 57 13.9 4 -15.6 11 11 W 17 28 29.67 1005 10 16 0.00 0.00
8:53 pm 20:53 Mostly Clear 54 12.2 5 -15 14 14 W 13 20 29.70 1006 10 16 0.00 0.00
9:53 pm 21:53 Clear 50 10 11 -11.7 21 21 WNW 15 24 29.74 1007 10 16 0.00 0.00
10:53 pm 22:53 Clear 45 7.2 25 -3.9 46 46 NW 12 19 29.79 1009 10 16 0.00 0.00
11:53 pm 23:53 Clear 44 6.7 27 -2.8 51 51 NW 14 22 29.79 1009 10 16 0.00 0.00

Powered by AerisWeather